sat.trackr.live / text

‹ back to catalog

GPS BIIF-12 (PRN 32)

NORAD 41328 · 2016-007A

PAYLOAD ACTIVE UNKNOWN

§ Identity

Operator
Country
US
Launch date
2016-02-05
Launch site
AFETR
Launch vehicle
Mass (kg)
RCS (m²)
26.12

Purposes: earth_obs, nav

External: N2YO · Heavens-Above · Gunter

§ Orbital elements

Epoch: 2026-05-24T22:24:12.391200Z

Period
718.02 min
Inclination
55.5105°
Eccentricity
0.0096100
Mean motion
2.00552846 rev/d
Perigee alt
19,927.9 km
Apogee alt
20,438.4 km
Semi-major
26,561.3 km
B*
0.0000e+0
RAAN
90.3811°
Arg perigee
247.3195°
Mean anomaly
111.6364°
Rev number
7,537

§ Raw data

GPS BIIF-12 (PRN 32)1 41328U 16007A   26144.93347675 -.00000007  00000+0  00000+0 0  99992 41328  55.5105  90.3811 0096100 247.3195 111.6364  2.00552846 75376

JSON: /api/v1/satellites/41328 · /tle

For live sub-satellite position, see the globe view (requires WebGL).

§ Visibility from observer

Set your observer location to see the next 7 days of passes ≥ 10°. The values pass through the URL so the page stays shareable.

No JS? Fill the form by hand. The geolocation button needs JavaScript.